Regional Weather Roundup
Issued by NWS

Home | Current Version | Previous Version | Graphics & Text | Print | Product List | Glossary On
Versions: 1 2 3 4 5 6 7 8 9 10 11 12 13 14 15 16 17 18 19 20 21 22 23 24 25 26 27 28 29 30 31 32 33 34 35 36 37 38 39 40 41 42 43 44 45 46 47 48 49 50
000
ASUS44 KMEG 271410
RWRTN
TENNESSEE HOURLY STATE WEATHER ROUNDUP
NATIONAL WEATHER SERVICE MEMPHIS TN
800 AM CST THU NOV 27 2014

TNZ002-004-019-021-049-052-054-088>092-271500-
WEST TENNESSEE

CITY           SKY/WX    TMP DP  RH WIND       PRES   REMARKS
MEMPHIS INTL   PTSUNNY   39  28  64 N12       30.45R WCI  32
NWS MEMPHIS      N/A     38 N/A N/A MISG        N/A
JACKSON        CLOUDY    38  30  73 N14       30.41R WCI  30
DYERSBURG      CLOUDY    37  21  52 N12       30.44R WCI  30
UNION CITY     PTSUNNY   34  30  86 NW10      30.40R WCI  26
PARIS          PTSUNNY   34  28  80 N9        30.37R WCI  26
HUNTINGDON     CLOUDY    35  30  82 N5        30.39R WCI  31
LEXINGTON      CLOUDY    36  30  80 N9        30.36R WCI  29
SAVANNAH       CLOUDY    37  28  70 NW13      30.39R WCI  29
$$

TNZ008-025-027-028-033-062-065-066-271500-
NORTH MIDDLE TENNESSEE

CITY           SKY/WX    TMP DP  RH WIND       PRES   REMARKS
NASHVILLE      CLOUDY    37  31  78 N12G22    30.34R WCI  29
CLARKSVILLE    PTSUNNY   35  30  82 N14       30.37R WCI  26
COOKEVILLE     CLOUDY    36  32  87 N5        30.26R WCI  32
CROSSVILLE     CLOUDY    33  30  88 NW13G21   30.21R FOG     WCI  24
$$

TNZ061-075-076-078-094-096-097-271500-
SOUTH MIDDLE TENNESSEE

CITY           SKY/WX    TMP DP  RH WIND       PRES   REMARKS
FAYETTEVILLE   CLOUDY    36  28  75 MISG      30.30R
TULLAHOMA      CLOUDY    34  28  80 NW10      30.30R WCI  26
WINCHESTER     CLOUDY    36  30  80 N10       30.30R WCI  28
MCMINNVILLE    CLOUDY    36  34  93 NW6       30.28R WCI  31
COLUMBIA       CLOUDY    36  36 100 NW3       30.32R
SHELBYVILLE    CLOUDY    37  32  81 NW10      30.32R WCI  30
$$

TNZ017-018-042-046-047-271500-
NORTHEAST TENNESSEE

CITY           SKY/WX    TMP DP  RH WIND       PRES   REMARKS
TRI CITIES     LGT RAIN  35  34  96 W6        30.10R WCI  30
ELIZABETHTON   LGT SNOW  32  30  93 W5        30.09R FOG     WCI  27
$$

TNZ012-013-036-069-073-074-271500-
CENTRAL EAST TENNESSEE

CITY           SKY/WX    TMP DP  RH WIND       PRES   REMARKS
KNOXVILLE      PTSUNNY   38  31  76 W12       30.20R WCI  30
OAK RIDGE      CLOUDY    39  32  76 CALM      30.22R
GATLINBURG     PTSUNNY   36  30  80 W7        30.18R WCI  30
MORRISTOWN     MOSUNNY   37  34  87 NW15      30.16R WCI  28
$$

TNZ083-085-099-271500-
SOUTHEAST TENNESSEE

CITY           SKY/WX    TMP DP  RH WIND       PRES   REMARKS
CHATTANOOGA    PTSUNNY   41  33  73 NW13G18   30.26R
$$

SKY/WX REPORTED AS FAIR MEANS FEW OR NO CLOUDS BELOW
12 THOUSAND FEET.




USA.gov is the U.S. government's official web portal to all federal, state and local government web resources and services.